Location: Newark
(0.5300°S, 127.4800°E)
Time: 10:51:56
(UTC+00:00)

A-11 Canister half - Pass Details

Date: 23 September 2019
Orbit: 1514 x 1686 km, 47.2° (Epoch: 16 October)

Event Time Altitude Azimuth Distance (km) Brightness Sun altitude
Rises 10:35:22 0° 305° (NW) 4,727 12.5 -18.2°
Reaches altitude 10° 10:38:34 10° 299° (WNW) 3,768 11.9 -19.0°
Maximum altitude 10:47:35 46° 229° (SW) 2,079 10.0 -21.2°
Drops below altitude 10° 10:56:58 10° 159° (SSE) 3,903 10.9 -23.6°
Sets 11:00:23 0° 153° (SSE) 4,910 11.4 -24.4°
